EW8142 Weather Reports


time (UTC)temp
C
wind
direction
speed
KPH
gust
KPH
rain 1hr
cm
rain 24hr
cm
rain mn
cm
humidity
%
barometer
mb
20210723144605 21 0.0 0.0 0.00 0.00 0.00 73 1016.1
20210723143130 21 0.0 0.0 0.00 0.00 0.00 74 1016.1
20210723141602 21 360 0.0 0.0 0.00 0.00 0.00 74 1016.2
20210723140032 -17 0.0 0.0 0.00 0.00 0.00
20210723114610 16 360 0.0 0.0 0.00 0.00 0.00 86 1015.9
20210723113111 15 360 0.0 0.0 0.00 0.00 0.00 89 1015.7
20210723111618 14 0.0 0.0 0.00 0.00 0.00 92 1015.8
20210723110045 13 360 0.0 0.0 0.00 0.00 0.00 95 1015.7
20210723104555 13 0.0 0.0 0.00 0.00 0.00 95 1015.5
20210723103108 12 0.0 0.0 0.00 0.00 0.00 96 1015.5
20210723101636 12 0.0 0.0 0.00 0.00 0.00 96 1015.4
20210723100056 12 0.0 0.0 0.00 0.00 0.00 95 1015.1
20210723094525 12 0.0 0.0 0.00 0.00 0.00 95 1015.1
20210723093022 12 0.0 0.0 0.00 0.00 0.00 95 1015.0
20210723091521 11 0.0 0.0 0.00 0.00 0.00 95 1014.7
20210723090022 12 0.0 0.0 0.00 0.00 0.00 95 1014.7
20210723084526 12 0.0 0.0 0.00 0.00 0.00 95 1014.7
20210723083039 12 0.0 0.0 0.00 0.00 0.00 95 1014.6
20210723081512 12 0.0 0.0 0.00 0.00 0.00 95 1014.6
20210723080107 12 0.0 0.0 0.00 0.00 0.00 95 1014.4
20210723074508 12 0.0 0.0 0.00 0.00 0.00 95 1014.3
20210723073005 12 0.0 0.0 0.00 0.00 0.00 95 1014.4
20210723071511 12 0.0 0.0 0.00 0.00 0.00 95 1014.4
20210723070006 12 360 0.0 0.0 0.00 0.00 0.00 95 1014.6
20210723064604 12 360 0.0 0.0 0.00 0.00 0.00 95 1014.5
20210723063113 12 0.0 0.0 0.00 0.03 0.00 95 1014.6
20210723061543 12 0.0 0.0 0.00 0.03 0.00 95 1014.6
20210723060039 13 360 0.0 0.0 0.00 0.03 0.00 95 1014.7
20210723054625 13 0.0 0.0 0.00 0.03 0.00 95 1014.7
20210723053116 13 360 0.0 0.0 0.00 0.03 0.00 94 1014.8
20210723051553 13 0.0 0.0 0.00 0.03 0.00 95 1014.9
20210723050038 13 360 0.0 0.0 0.00 0.03 0.00 94 1014.9
20210723044549 13 360 0.0 0.0 0.00 0.03 0.00 94 1014.9
20210723043047 13 360 0.0 0.0 0.00 0.03 0.00 94 1014.9
20210723041614 13 360 0.0 0.0 0.00 0.03 0.00 94 1015.0
20210723040019 13 360 0.0 0.0 0.00 0.03 0.00 94 1015.1
20210723034541 13 360 0.0 0.0 0.00 0.03 0.00 93 1015.1
20210723033015 13 360 0.0 0.0 0.00 0.05 0.00 93 1015.1
20210723031524 14 360 0.0 0.0 0.00 0.05 0.00 93 1015.0
20210723030012 14 360 0.0 0.0 0.00 0.05 0.00 92 1014.7
20210723024607 14 0.0 0.0 0.00 0.05 0.00 93 1014.8
20210723023005 13 0.0 0.0 0.00 0.05 0.00 92 1014.9
20210723021951 14 0.0 0.0 0.00 0.05 0.00 92 1015.0
20210723020148 15 360 0.0 0.0 0.00 0.05 0.00 91 1014.9
20210723014705 15 360 0.0 0.0 0.00 0.05 0.00 90 1015.1
20210723013240 16 0.0 0.0 0.00 0.05 0.00 86 1015.1
20210723011621 16 360 0.0 0.0 0.00 0.05 0.00 86 1014.9
20210723010131 16 0.0 0.0 0.00 0.05 0.00 88 1014.4
20210723004629 16 0.0 0.0 0.00 0.05 0.00 87 1014.1
20210723003157 16 0.0 0.0 0.00 0.05 0.00 86 1013.9
20210723001615 16 0.0 0.0 0.00 0.05 0.00 85 1013.8
20210723000208 16 0.0 0.0 0.00 0.05 0.00 84 1013.6
20210722234616 16 0.0 0.0 0.00 0.05 0.00 82 1013.7
20210722233047 17 0.0 0.0 0.00 0.05 0.00 80 1013.5
20210722231540 18 360 0.0 0.0 0.00 0.05 0.00 79 1013.5
20210722230029 18 0.0 0.0 0.00 0.05 0.00 76 1013.4
20210722224548 19 0.0 0.0 0.00 0.05 0.00 76 1013.2
20210722223027 19 360 0.0 0.0 0.00 0.05 0.00 74 1013.1
20210722221526 20 0.0 0.0 0.00 0.05 0.00 71 1012.9
20210722220011 20 0.0 0.0 0.00 0.05 0.00 71 1012.9
20210722214509 22 0.0 0.0 0.00 0.05 0.00 63 1012.6
20210722213036 23 0.0 0.0 0.00 0.05 0.00 58 1012.5
20210722211518 23 0.0 0.0 0.00 0.05 0.00 57 1012.6
20210722210003 23 0.0 0.0 0.00 0.05 0.00 58 1012.6
20210722204506 23 0.0 0.0 0.00 0.05 0.00 60 1012.5
20210722203254 23 0.0 0.0 0.00 0.05 0.00 59 1012.6
20210722201631 23 0.0 0.0 0.00 0.05 0.00 56 1012.4
20210722200158 23 0.0 0.0 0.00 0.05 0.00 55 1012.3
20210722194724 22 0.0 0.0 0.00 0.05 0.00 63 1012.1
20210722193218 23 0.0 0.0 0.00 0.05 0.00 59 1012.2
20210722191656 23 0.0 0.0 0.00 0.05 0.00 60 1012.3
20210722190146 24 0.0 0.0 0.00 0.05 0.00 63 1012.3
20210722184627 23 0.0 0.0 0.00 0.05 0.00 58 1012.4
20210722183208 22 0.0 0.0 0.00 0.05 0.00 62 1012.6
20210722181620 23 0.0 0.0 0.00 0.05 0.00 62 1012.6
20210722180124 22 0.0 0.0 0.00 0.05 0.00 59 1012.4
20210722174539 23 360 0.0 0.0 0.00 0.05 0.00 68 1012.4
20210722173045 22 360 0.0 0.0 0.00 0.05 0.05 66 1012.3
20210722171611 22 0.0 0.0 0.00 0.05 0.05 66 1012.3
20210722170112 21 0.0 0.0 0.00 0.05 0.05 67 1012.3
20210722164627 21 0.0 0.0 0.00 0.05 0.05 68 1012.4
20210722163116 20 0.0 0.0 0.00 0.05 0.05 73 1012.5
20210722161550 20 0.0 0.0 0.00 0.05 0.05 75 1012.6
20210722160046 20 0.0 0.0 0.00 0.05 0.05 73 1012.7
20210722154605 21 0.0 0.0 0.00 0.05 0.05 70 1012.4
20210722153025 19 0.0 0.0 0.00 0.05 0.05 75 1012.4
20210722151542 19 360 0.0 0.0 0.00 0.05 0.05 77 1012.4
20210722150105 20 0.0 0.0 0.00 0.05 0.05 76 1012.4